This is the latest recevied weather packets stored in our database for station/object IU2PLZ-10. If no packets are shown the sender has not sent any weather packets the latest 10 day(s).
| Time | Temp. | Humidity | Pressure | Rain* | Wind** | Luminosity | Snow |
|---|---|---|---|---|---|---|---|
| 1778075302 | 25° C | 41% | 963.4 hPa | - | - | - | - |
| 1778074402 | 25.56° C | 41% | 963.5 hPa | - | - | - | - |
| 1778073502 | 25.56° C | 42% | 963.6 hPa | - | - | - | - |
| 1778072602 | 25.56° C | 42% | 963.6 hPa | - | - | - | - |
| 1778071702 | 25° C | 42% | 962.9 hPa | - | - | - | - |
| 1778070801 | 25.56° C | 41% | 963.8 hPa | - | - | - | - |
| 1778069901 | 25.56° C | 41% | 963.8 hPa | - | - | - | - |
| 1778069001 | 25.56° C | 38% | 963.5 hPa | - | - | - | - |
| 1778068101 | 25° C | 39% | 962.8 hPa | - | - | - | - |
| 1778067201 | 25° C | 38% | 963.3 hPa | - | - | - | - |
| 1778066301 | 25° C | 38% | 963.2 hPa | - | - | - | - |
| 1778065401 | 25.56° C | 39% | 963.9 hPa | - | - | - | - |
| 1778064500 | 24.44° C | 38% | 963.2 hPa | - | - | - | - |
| 1778063600 | 25° C | 38% | 963.3 hPa | - | - | - | - |
| 1778062700 | 25.56° C | 38% | 963.9 hPa | - | - | - | - |
| 1778061800 | 25° C | 38% | 963.4 hPa | - | - | - | - |
| 1778060900 | 25° C | 38% | 963.9 hPa | - | - | - | - |
| 1778059999 | 24.44° C | 37% | 963.9 hPa | - | - | - | - |
| 1778059099 | 25° C | 36% | 963.3 hPa | - | - | - | - |
| 1778058199 | 25° C | 37% | 963 hPa | - | - | - | - |
| 1778057299 | 24.44° C | 39% | 963.8 hPa | - | - | - | - |
| 1778056399 | 23.89° C | 40% | 963.8 hPa | - | - | - | - |
| 1778055499 | 23.89° C | 41% | 963.3 hPa | - | - | - | - |
| 1778054599 | 22.78° C | 43% | 963.2 hPa | - | - | - | - |
| 1778053698 | 22.22° C | 41% | 963.2 hPa | - | - | - | - |
* Rain since midnight (hover to see other rain measurements)
** Current wind speed in m/s (hover to see current wind gust speed)